GFSMW_850_spd_231.txt.gz
Wind_Speed
13 17 19 25 29 27 23 21 21 19 20 19 16 14 20 17 15 13 12 10 9 7 6 7 10 10 7 5 5 5 5 7 6 5 4 5 8 14 17 16 15 15 14
15 11 14 19 24 31 26 22 22 21 20 19 15 14 16 18 16 15 13 13 11 11 11 8 10 9 13 9 7 5 7 6 5 8 6 2 3 6 14 13 17 18 17
9 12 8 12 24 28 30 24 20 22 19 19 19 18 16 21 20 19 17 16 15 14 14 10 8 11 12 15 12 12 11 10 8 7 5 4 2 8 5 13 16 16 16
5 9 15 11 19 25 28 27 24 23 19 21 22 22 20 20 21 20 19 16 16 17 16 15 14 15 13 13 16 16 16 15 11 8 6 4 7 4 5 8 11 12 16
6 8 2 9 6 18 24 27 23 21 19 23 23 22 25 24 21 23 21 21 20 18 20 20 18 18 17 16 15 14 14 16 15 14 10 9 9 8 6 8 9 9 9
18 5 3 2 4 9 22 24 16 20 6 15 27 27 28 28 28 26 27 23 21 20 21 20 20 21 19 18 17 15 16 15 17 17 16 15 14 12 9 10 13 14 13
19 9 2 4 2 2 11 15 23 20 23 16 18 23 28 25 27 24 25 27 25 22 23 23 23 23 22 19 18 18 16 16 18 18 17 17 17 16 16 15 15 16 14
20 18 15 13 15 10 7 9 13 12 27 18 21 24 19 22 16 20 24 26 26 22 22 23 24 24 22 21 19 21 18 16 17 17 18 18 19 18 17 16 19 21 22
14 11 9 11 15 15 14 13 9 13 13 10 6 9 17 18 17 19 20 25 23 18 21 27 29 27 25 22 19 18 20 19 17 19 18 18 17 17 18 20 20 22 25
16 13 11 12 12 13 13 9 7 6 5 1 2 5 8 11 14 17 17 18 17 16 24 24 24 22 23 25 26 27 22 21 21 20 20 22 21 20 19 18 18 21 25
15 11 10 10 10 13 13 12 10 9 7 5 5 5 7 10 13 15 16 17 17 18 16 19 22 21 23 23 21 23 23 23 23 23 24 23 22 23 21 21 21 20 23
17 12 8 5 6 10 14 15 13 13 12 12 11 12 13 14 15 14 16 17 17 16 17 17 17 19 22 27 25 25 25 24 25 25 24 24 24 25 26 26 26 26 24
20 15 10 5 5 9 11 12 14 15 16 15 15 15 16 17 19 18 18 18 19 19 17 16 17 21 22 25 27 24 22 25 26 26 26 25 25 26 26 26 28 29 25
19 14 7 2 5 7 9 10 13 16 16 15 16 17 17 17 18 18 19 19 20 20 19 18 17 18 19 22 25 27 24 23 24 25 25 26 26 26 25 25 26 26 25
17 10 4 3 8 11 12 16 17 18 20 22 22 22 20 18 18 19 19 19 19 19 18 18 18 18 19 19 18 19 21 24 24 22 23 24 25 24 22 23 25 25 26
17 11 4 2 6 10 14 16 18 22 24 26 26 24 22 21 20 21 21 20 19 20 19 18 19 20 20 19 18 18 19 19 21 22 23 24 25 25 24 22 22 24 24
16 10 5 4 6 10 12 14 18 22 23 22 20 20 21 21 20 21 22 22 23 23 22 21 20 20 20 19 18 17 17 17 17 19 20 21 22 22 23 23 24 24 24
15 10 5 4 7 10 12 16 19 19 19 17 17 17 19 20 20 19 18 17 19 21 23 24 24 23 21 19 17 17 17 17 18 17 17 17 17 18 19 21 23 24 27
11 7 3 5 8 10 14 17 16 16 17 17 17 18 19 19 17 16 17 19 20 20 19 19 22 27 25 22 19 17 17 17 18 16 16 15 15 12 14 17 20 24 27
7 3 2 5 8 13 15 17 16 15 16 16 16 18 19 19 18 16 16 16 16 18 17 17 17 19 26 25 20 16 15 16 17 15 15 14 13 12 14 16 18 20 23
5 3 3 7 13 16 18 17 16 15 15 15 15 16 17 17 16 15 15 15 15 18 18 17 15 13 15 22 17 15 12 13 14 13 8 8 11 14 16 18 18 20 22
7 3 8 12 15 17 17 17 14 12 13 13 13 13 15 14 16 15 14 15 16 17 17 15 13 9 6 8 7 10 9 10 10 14 14 12 14 16 18 18 18 18 21
5 7 11 14 14 14 15 15 13 12 13 13 13 13 12 13 14 14 14 16 17 18 19 17 15 11 6 7 6 3 7 7 9 12 13 15 16 17 18 18 18 19 21
6 8 10 12 12 12 13 13 12 12 11 11 11 11 13 11 12 13 13 15 18 17 14 15 15 12 10 9 12 12 10 11 12 13 16 19 21 20 20 20 19 18 18
7 9 10 9 9 9 8 11 12 9 9 10 12 12 12 12 12 10 11 9 14 19 14 15 16 17 14 12 12 14 18 18 18 19 21 24 23 23 20 19 18 18 18
8 7 6 6 8 7 9 10 12 10 8 10 10 11 11 12 13 13 8 6 8 13 16 15 14 13 13 15 14 14 15 16 16 18 19 21 21 19 18 19 20 19 20

GFSMW_850_spd_234.txt.gz
Wind_Speed
7 17 21 22 21 21 15 11 13 12 13 15 16 15 14 14 14 12 10 10 11 9 7 6 8 10 8 6 7 7 5 3 4 6 6 7 10 14 19 19 18 17 16
3 6 9 17 17 19 21 16 15 14 14 15 15 15 13 13 16 15 14 14 14 13 12 11 7 10 10 11 10 9 7 7 6 7 8 5 6 10 15 22 19 17 17
5 6 3 6 11 15 18 21 11 12 16 17 17 17 15 15 17 18 17 17 16 15 15 13 14 11 14 13 13 13 12 11 11 9 6 4 4 13 4 10 12 14 17
8 4 2 6 8 6 9 15 12 17 16 20 19 21 20 20 17 19 21 21 20 18 17 18 15 15 16 16 14 16 17 17 15 12 9 8 8 5 7 6 9 8 11
11 12 5 5 5 5 8 15 12 15 9 15 18 21 25 23 23 24 23 22 22 21 22 20 19 21 19 18 17 17 16 16 14 13 13 12 11 13 13 13 10 11 9
9 3 5 4 3 6 5 14 19 14 10 11 6 15 24 25 27 27 27 27 26 24 21 21 20 21 21 21 18 18 18 19 17 16 17 16 16 15 13 17 17 17 12
12 7 5 1 2 5 6 10 15 15 18 8 7 18 19 23 27 29 30 28 24 24 25 25 22 22 22 20 19 19 19 20 20 18 17 18 19 18 18 19 20 21 21
15 10 11 9 8 5 2 9 9 19 20 19 11 15 18 21 22 18 16 17 22 23 21 28 27 22 19 21 22 22 22 22 22 21 19 18 18 19 20 21 19 21 23
17 17 14 13 15 16 15 9 7 5 6 21 25 27 22 18 18 18 16 15 14 15 21 21 21 22 25 25 26 27 23 20 22 24 22 21 20 20 18 20 21 21 25
19 18 15 13 13 13 13 10 8 5 4 4 6 7 8 9 10 13 14 13 15 13 15 24 26 24 24 27 26 27 29 28 27 26 25 22 22 22 21 21 21 22 24
23 20 16 14 12 10 8 6 4 2 2 4 6 8 11 13 13 14 15 15 15 16 18 21 22 20 24 26 29 27 27 26 24 25 25 25 24 23 22 21 21 23 25
20 19 16 13 9 6 5 5 5 3 3 4 8 11 14 17 19 19 19 18 17 17 18 19 19 19 20 26 28 29 27 27 27 26 27 27 25 24 23 23 23 26 26
20 16 13 9 5 3 4 6 6 8 9 9 9 11 13 16 18 19 19 21 22 21 21 21 20 20 20 22 24 26 24 27 26 26 30 30 27 28 25 24 24 25 25
20 16 11 8 3 1 4 7 9 10 11 13 15 16 15 15 16 17 17 18 19 20 21 21 21 21 20 20 20 21 24 24 24 25 26 26 25 25 25 23 22 24 25
21 16 12 8 5 1 7 10 11 13 15 17 18 17 16 16 17 18 19 19 20 19 20 21 20 20 20 18 19 20 18 21 24 25 25 25 23 24 24 22 21 20 22
20 16 12 8 2 3 7 9 12 15 17 16 17 16 17 17 17 17 17 18 19 20 21 21 22 21 20 19 19 20 20 20 19 20 20 20 21 22 24 24 23 23 23
23 17 11 5 1 6 9 11 14 16 16 16 15 16 18 18 20 20 17 16 17 17 19 20 22 24 23 21 20 18 19 21 20 20 19 19 19 19 20 21 23 24 25
23 15 7 2 6 10 13 15 18 17 17 17 17 17 19 20 20 18 16 16 19 19 19 18 18 21 22 25 22 19 18 19 18 18 19 19 16 15 16 16 19 21 22
20 12 6 2 6 10 13 15 17 17 16 17 18 18 20 20 19 19 17 18 19 19 19 19 18 18 18 20 25 21 19 18 18 17 17 17 16 14 14 13 13 14 15
13 8 4 3 6 9 13 15 16 16 16 16 16 16 18 20 19 19 18 18 19 20 21 22 19 18 17 16 17 19 17 16 16 15 15 16 16 16 12 13 16 18 18
11 6 4 4 7 11 14 16 16 16 15 14 13 13 17 17 18 19 17 19 19 19 21 20 18 14 13 15 11 10 13 13 14 16 13 13 10 9 12 14 17 19 20
11 7 3 5 10 12 14 15 16 15 13 12 13 13 15 15 16 18 16 19 20 21 20 20 17 12 10 10 6 7 9 12 13 12 13 13 11 12 14 15 16 17 19
9 5 3 8 11 12 12 12 12 14 12 12 13 13 14 13 13 16 16 16 15 18 20 18 18 16 12 11 9 7 6 9 10 13 14 12 12 13 14 15 16 18 19
7 4 6 9 9 9 9 9 12 13 10 9 10 12 12 11 13 14 14 12 14 16 16 17 18 19 18 15 11 9 11 12 12 14 13 15 17 18 18 17 16 17 18
7 6 8 8 8 7 8 9 12 13 11 8 9 10 10 11 11 13 12 10 11 14 18 19 19 19 19 20 20 17 14 11 11 14 16 16 16 16 16 15 14 13 14
7 7 6 6 7 7 8 9 10 11 11 9 11 11 9 10 12 11 11 12 11 14 17 19 18 15 15 16 18 15 15 14 13 11 10 10 10 10 11 12 11 9 9

GFSMW_850_spd_237.txt.gz
Wind_Speed
11 12 16 17 16 17 16 10 11 12 11 11 12 12 10 8 9 9 8 8 10 10 8 8 8 9 10 9 9 10 11 11 10 12 9 12 10 12 16 17 17 18 18
5 7 9 12 12 13 14 13 10 10 10 12 12 12 11 10 9 10 10 9 10 11 12 11 11 11 11 10 11 11 12 11 10 11 13 6 7 5 9 17 19 19 17
7 6 8 9 10 12 13 12 7 9 13 13 12 13 14 14 12 10 10 10 13 13 12 14 13 14 14 14 13 13 15 15 15 13 9 6 3 9 4 6 6 11 14
4 7 11 10 8 8 10 15 13 10 10 12 15 13 14 16 14 13 13 14 13 14 14 14 14 17 16 17 16 16 16 18 16 16 16 13 13 6 5 3 5 6 7
7 7 8 11 11 9 12 11 8 9 13 12 11 14 18 17 17 16 17 17 18 17 17 16 17 17 20 20 20 20 20 19 19 17 14 16 16 15 11 12 6 9 9
10 9 8 8 9 8 13 15 14 8 9 9 9 17 11 13 17 18 20 20 23 23 20 21 19 19 19 20 21 22 22 20 21 21 20 16 14 13 12 13 14 13 12
14 12 11 10 9 7 8 13 16 18 14 15 17 13 11 10 15 15 15 14 14 15 19 21 24 24 21 23 22 22 22 22 21 22 20 20 21 20 17 16 17 16 14
12 13 17 16 14 9 4 6 9 13 12 17 19 17 14 14 16 17 19 19 14 14 15 20 27 24 26 24 23 23 22 22 24 24 21 21 22 22 21 20 16 18 16
13 16 20 20 19 14 11 6 3 4 9 17 14 13 12 12 10 9 10 13 15 16 15 19 25 16 18 21 25 29 27 26 26 24 24 24 24 24 23 22 20 17 19
13 15 16 17 19 16 12 7 5 2 0 3 7 11 14 14 14 13 16 20 21 21 20 20 22 23 21 25 28 27 28 29 28 27 26 25 27 27 24 23 21 21 20
12 14 14 16 14 12 9 6 4 2 3 6 9 11 14 16 16 17 18 18 19 20 20 21 22 24 23 22 24 27 26 28 27 27 27 25 24 26 25 24 23 23 26
14 13 13 12 10 8 6 5 3 3 5 6 9 11 14 16 17 19 20 21 22 22 23 22 21 21 22 23 23 23 25 27 29 28 25 25 24 24 25 25 25 25 25
17 14 13 11 7 5 4 3 4 5 6 7 9 11 13 14 15 16 17 19 21 21 22 24 25 24 23 23 23 22 23 24 26 28 28 27 25 27 23 24 26 25 24
18 15 13 10 5 2 1 2 5 6 8 10 11 11 11 12 14 15 15 16 18 19 20 21 22 23 23 23 21 21 21 22 23 25 25 25 24 23 20 22 23 24 25
19 18 15 12 8 5 4 3 5 8 11 11 12 12 12 12 13 14 15 15 15 17 19 20 20 21 22 18 20 21 21 22 23 22 22 24 25 24 23 22 23 22 23
23 21 19 15 9 8 5 4 7 9 10 10 10 12 13 14 14 15 14 13 12 13 14 16 19 21 22 23 22 21 23 22 23 23 22 22 21 22 21 23 23 23 23
24 22 18 13 9 6 4 5 9 10 10 11 12 12 13 14 16 15 12 11 12 13 13 13 15 16 18 21 24 23 22 23 22 23 21 22 21 20 20 21 21 21 22
24 21 17 12 8 4 4 8 10 11 10 11 11 12 12 14 14 13 11 12 13 13 13 13 14 14 14 15 18 22 25 23 21 20 20 20 19 19 18 17 17 15 15
26 21 15 11 6 4 6 9 11 12 12 11 10 9 11 13 13 13 13 13 14 14 15 15 15 13 13 13 15 18 20 23 20 19 19 19 19 17 17 16 15 13 10
25 20 14 9 5 4 7 9 9 10 12 10 8 8 10 12 13 14 13 15 17 17 17 17 15 13 14 13 14 16 15 18 18 17 18 18 18 16 16 16 14 13 14
22 17 12 6 4 7 9 9 11 12 12 10 8 7 9 10 11 12 14 14 15 16 17 17 15 12 12 13 15 14 11 14 15 15 14 14 14 12 13 10 12 15 17
20 14 8 5 6 8 9 9 9 10 10 7 7 7 9 10 10 10 12 11 12 14 16 16 16 16 16 13 12 12 12 12 14 14 11 10 10 8 9 11 12 13 15
15 11 7 5 6 7 7 7 8 9 8 7 7 7 6 7 9 12 12 13 13 14 14 14 16 18 17 16 13 10 11 12 13 12 11 12 10 11 11 13 14 15 16
12 9 5 5 7 7 6 7 8 9 9 8 8 7 6 7 8 11 13 12 13 14 16 18 20 22 19 17 18 18 12 10 13 14 13 13 12 13 14 13 14 14 15
10 6 5 6 6 6 6 7 8 7 8 7 7 9 7 8 7 9 10 12 14 16 18 19 20 20 18 18 19 20 19 16 10 7 5 5 7 9 11 11 12 12 13
7 6 7 7 7 6 7 7 6 6 6 6 6 8 7 8 8 9 7 10 13 15 18 20 18 17 16 17 15 16 14 12 10 9 4 4 6 7 9 11 12 13 13

GFSMW_850_spd_240.txt.gz
Wind_Speed
8 9 10 14 13 12 12 11 12 14 13 11 11 11 9 6 6 6 8 6 7 8 11 6 7 7 7 10 9 8 8 6 7 9 7 8 8 9 11 13 13 13 14
8 7 7 12 15 16 16 16 15 16 15 12 11 8 8 7 7 7 8 8 8 7 7 8 10 10 8 11 10 9 8 8 7 5 9 5 4 6 6 9 13 14 14
9 6 6 11 14 17 19 19 17 16 14 13 11 9 9 10 8 8 7 7 9 10 10 11 13 14 14 13 13 10 10 9 10 10 7 6 2 5 6 7 7 10 11
8 8 8 9 14 15 16 17 16 17 14 14 11 10 10 10 8 9 10 10 11 12 13 13 15 15 16 17 15 13 13 13 12 11 12 12 11 9 5 5 6 7 8
8 9 11 9 8 12 12 16 18 14 14 12 11 8 8 12 10 12 13 13 15 18 17 17 18 17 18 17 20 22 19 16 15 14 14 14 10 10 10 13 9 6 9
8 8 10 9 7 9 11 14 15 11 10 13 12 13 10 9 8 10 11 12 13 14 17 17 18 19 19 19 19 20 20 19 18 18 19 18 14 11 13 13 13 14 12
10 8 7 9 9 8 11 10 13 8 8 7 9 10 6 7 8 8 9 11 11 13 12 12 15 14 18 20 21 21 21 22 21 21 19 17 17 18 18 18 17 17 15
12 7 6 5 5 8 9 9 8 6 8 12 9 11 13 9 9 12 12 11 10 10 12 12 14 16 17 19 23 24 20 19 20 21 21 18 17 18 17 19 17 16 17
13 11 9 8 10 10 10 9 7 7 5 7 7 10 12 16 15 13 11 11 13 14 13 14 16 17 16 18 19 19 19 21 22 21 23 23 21 18 20 18 16 16 16
15 13 12 11 10 11 12 12 10 8 5 3 2 3 6 7 9 8 11 14 14 14 14 15 16 17 15 17 20 17 18 20 19 19 21 23 19 19 25 24 21 20 20
18 15 13 11 9 9 10 10 9 7 5 1 4 6 8 10 13 15 17 19 20 22 23 23 21 20 18 16 17 19 20 19 20 20 20 22 23 23 19 20 19 22 21
19 17 15 12 10 9 9 7 7 6 2 3 5 7 10 13 14 17 19 20 21 21 21 22 23 23 22 19 18 18 17 19 20 20 21 19 20 22 21 22 23 22 23
18 17 15 12 9 8 7 5 5 4 4 5 6 8 10 11 12 14 16 18 20 21 21 21 21 21 20 21 20 18 17 17 17 18 18 18 17 19 20 23 25 27 23
20 17 14 11 9 6 2 3 4 6 7 8 7 8 9 11 12 13 14 15 15 16 17 18 20 19 19 17 16 16 16 17 17 18 19 18 19 17 16 16 20 22 23
20 18 15 11 8 4 0 5 5 8 9 9 7 9 11 11 12 13 14 15 14 14 15 16 16 17 18 15 21 23 22 18 18 17 17 19 17 19 20 19 19 20 20
20 17 14 12 10 7 3 5 5 7 8 8 8 10 11 11 11 12 12 11 10 12 13 14 15 16 15 20 21 24 26 23 19 18 17 18 20 19 19 21 20 20 23
23 20 16 13 10 7 6 5 5 7 8 9 9 8 9 9 11 13 11 9 10 12 12 12 13 14 16 18 19 21 23 22 20 19 18 17 17 20 17 18 19 21 21
22 21 18 14 11 8 8 6 8 8 9 8 8 8 9 10 12 11 11 9 10 11 11 12 12 14 14 14 17 20 21 20 20 21 20 18 18 17 17 15 16 15 16
22 20 17 15 12 9 6 7 6 6 6 7 8 8 8 8 11 10 10 10 10 12 13 13 12 13 12 14 15 17 18 16 17 17 18 20 18 17 17 17 15 15 10
21 20 18 14 10 7 6 5 5 5 6 10 8 6 6 7 8 8 7 7 8 9 10 11 10 12 13 14 16 16 17 13 13 13 15 16 17 17 14 17 14 13 10
20 19 16 13 9 6 5 4 5 5 7 8 6 5 5 7 7 7 8 8 6 7 8 9 10 11 11 11 12 15 14 15 14 12 13 12 13 15 13 13 14 13 12
21 18 15 11 7 5 4 4 4 6 6 6 6 5 6 5 6 6 7 8 8 7 8 9 9 10 14 12 13 14 15 14 14 13 12 11 10 10 9 8 9 12 12
18 14 11 9 5 5 5 4 5 5 4 3 5 5 6 7 6 6 9 8 8 8 9 10 11 13 12 11 13 12 12 11 12 11 12 10 9 8 8 10 11 11 11
15 12 9 7 5 6 5 4 5 5 5 5 5 6 6 8 6 5 11 11 7 7 9 11 12 13 11 12 16 16 14 10 8 9 6 6 4 6 10 9 13 12 14
11 9 7 6 6 6 5 5 5 5 4 5 5 5 5 6 6 6 6 10 10 9 9 10 11 12 11 15 16 16 15 14 10 8 5 6 7 6 5 8 8 8 8
10 9 7 6 7 6 5 5 5 4 4 4 4 5 3 5 6 5 8 13 13 14 15 14 11 10 13 12 12 12 11 11 8 7 7 6 6 6 7 7 8 8 7